Climatologie pour Saint-Brevin les Pins
Jour • Résumé pour janvier 1, 2017 Système :  Métrique    Anglais   Mixte
« - 1 jour
+ 1 jour »
Jour Semaine Mois Année Personnalisé
  Maximum : Minimum : Moyenne :
Température sous abri : 6.0 °C -2.9 °C 1.7 °C
Point de rosée : 5.9 °C -3.3 °C 1.5 °C
Humidité : 99 % 97 % 99 %
Vitesse du vent : 20.9 km/h 0.0 km/h 4.9 km/h
Rafale : 22.5 km/h - -
Direction :- - SSE
Pression : 1030.0 hPa 1017.8 hPa -
Précipitations : 1.0 mm    
Historical Graphs
 
 
Tableau de données pour janvier 1, 2017
Heure Tempé Pt rosée Pression Vent Vitesse Rafale Humidité Taux pluie (/hr) Soleil
00:10 -2.8 °C -3.2 °C 1030.0 hPa Calm     97 % 0.0 mm 0 W/m2
00:15 -2.8 °C -3.2 °C 1030.0 hPa Calm     97 % 0.0 mm 0 W/m2
00:20 -2.8 °C -3.2 °C 1029.7 hPa Calm     97 % 0.0 mm 0 W/m2
00:25 -2.8 °C -3.2 °C 1029.7 hPa Calm     97 % 0.0 mm 0 W/m2
00:30 -2.8 °C -3.2 °C 1029.7 hPa Calm     97 % 0.0 mm 0 W/m2
00:35 -2.8 °C -3.2 °C 1029.7 hPa Calm     97 % 0.0 mm 0 W/m2
00:40 -2.9 °C -3.3 °C 1029.7 hPa Calm     97 % 0.0 mm 0 W/m2
00:45 -2.9 °C -3.3 °C 1029.3 hPa Calm     97 % 0.0 mm 0 W/m2
00:50 -2.9 °C -3.3 °C 1029.3 hPa Calm     97 % 0.0 mm 0 W/m2
00:55 -2.8 °C -3.2 °C 1029.3 hPa Calm     97 % 0.0 mm 0 W/m2
01:00 -2.8 °C -3.2 °C 1029.0 hPa Calm     97 % 0.0 mm 0 W/m2
01:05 -2.8 °C -3.2 °C 1029.0 hPa Calm     97 % 0.0 mm 0 W/m2
01:10 -2.8 °C -3.2 °C 1028.7 hPa Calm     97 % 0.0 mm 0 W/m2
01:15 -2.8 °C -3.2 °C 1028.7 hPa Calm     97 % 0.0 mm 0 W/m2
01:20 -2.8 °C -3.0 °C 1028.7 hPa Calm     98 % 0.0 mm 0 W/m2
01:25 -2.8 °C -3.0 °C 1028.7 hPa Calm     98 % 0.0 mm 0 W/m2
01:30 -2.7 °C -3.0 °C 1028.7 hPa Calm     98 % 0.0 mm 0 W/m2
01:35 -2.7 °C -3.0 °C 1028.3 hPa Calm     98 % 0.0 mm 0 W/m2
01:40 -2.7 °C -3.0 °C 1028.3 hPa Calm     98 % 0.0 mm 0 W/m2
01:45 -2.7 °C -3.0 °C 1028.3 hPa Calm     98 % 0.0 mm 0 W/m2
01:50 -2.7 °C -3.0 °C 1028.3 hPa Calm     98 % 0.0 mm 0 W/m2
01:55 -2.7 °C -3.0 °C 1028.3 hPa Calm     98 % 0.0 mm 0 W/m2
02:00 -2.7 °C -3.0 °C 1028.3 hPa Calm     98 % 0.0 mm 0 W/m2
02:05 -2.7 °C -3.0 °C 1028.0 hPa Calm     98 % 0.0 mm 0 W/m2
02:10 -2.8 °C -3.0 °C 1028.3 hPa Calm     98 % 0.0 mm 0 W/m2
02:15 -2.8 °C -3.2 °C 1028.0 hPa Calm     97 % 0.0 mm 0 W/m2
02:20 -2.8 °C -3.2 °C 1028.0 hPa Calm     97 % 0.0 mm 0 W/m2
02:25 -2.8 °C -3.2 °C 1027.7 hPa Calm     97 % 0.0 mm 0 W/m2
02:30 -2.8 °C -3.2 °C 1027.7 hPa Calm     97 % 0.0 mm 0 W/m2
02:35 -2.8 °C -3.2 °C 1027.7 hPa Calm     97 % 0.0 mm 0 W/m2
02:40 -2.8 °C -3.2 °C 1027.7 hPa Calm     97 % 0.0 mm 0 W/m2
02:50 -2.8 °C -3.2 °C 1027.7 hPa Calm     97 % 0.0 mm 0 W/m2
02:55 -2.8 °C -3.0 °C 1027.7 hPa Calm     98 % 0.0 mm 0 W/m2
03:00 -2.8 °C -3.0 °C 1027.7 hPa Calm     98 % 0.0 mm 0 W/m2
03:10 -2.8 °C -3.0 °C 1027.3 hPa Calm     98 % 0.0 mm 0 W/m2
03:15 -2.8 °C -3.0 °C 1027.3 hPa Calm     98 % 0.0 mm 0 W/m2
03:20 -2.8 °C -3.0 °C 1027.3 hPa Calm     98 % 0.0 mm 0 W/m2
03:25 -2.8 °C -3.0 °C 1027.3 hPa Calm     98 % 0.0 mm 0 W/m2
03:30 -2.8 °C -3.0 °C 1027.0 hPa Calm     98 % 0.0 mm 0 W/m2
03:35 -2.8 °C -3.0 °C 1027.3 hPa Calm     98 % 0.0 mm 0 W/m2
03:40 -2.8 °C -3.0 °C 1027.0 hPa Calm     98 % 0.0 mm 0 W/m2
03:45 -2.8 °C -3.0 °C 1027.3 hPa Calm     98 % 0.0 mm 0 W/m2
03:50 -2.8 °C -3.0 °C 1027.0 hPa Calm     98 % 0.0 mm 0 W/m2
03:55 -2.8 °C -3.0 °C 1027.0 hPa Calm     98 % 0.0 mm 0 W/m2
04:00 -2.8 °C -3.0 °C 1027.0 hPa Calm     98 % 0.0 mm 0 W/m2
04:05 -2.8 °C -3.0 °C 1027.0 hPa Calm     98 % 0.0 mm 0 W/m2
04:10 -2.8 °C -3.0 °C 1027.0 hPa Calm     98 % 0.0 mm 0 W/m2
04:20 -2.7 °C -3.0 °C 1026.6 hPa Calm     98 % 0.0 mm 0 W/m2
04:25 -2.7 °C -3.0 °C 1026.6 hPa Calm     98 % 0.0 mm 0 W/m2
04:30 -2.7 °C -3.0 °C 1026.3 hPa Calm     98 % 0.0 mm 0 W/m2
04:35 -2.7 °C -3.0 °C 1026.3 hPa Calm     98 % 0.0 mm 0 W/m2
04:40 -2.7 °C -3.0 °C 1026.3 hPa Calm     98 % 0.0 mm 0 W/m2
04:45 -2.7 °C -3.0 °C 1026.3 hPa Calm     98 % 0.0 mm 0 W/m2
04:50 -2.7 °C -3.0 °C 1026.3 hPa Calm     98 % 0.0 mm 0 W/m2
04:55 -2.8 °C -3.0 °C 1026.0 hPa Calm     98 % 0.0 mm 0 W/m2
05:00 -2.8 °C -3.0 °C 1026.0 hPa Calm     98 % 0.0 mm 0 W/m2
05:05 -2.8 °C -3.2 °C 1026.0 hPa Calm     97 % 0.0 mm 0 W/m2
05:10 -2.8 °C -3.2 °C 1025.6 hPa Calm     97 % 0.0 mm 0 W/m2
05:15 -2.8 °C -3.2 °C 1025.6 hPa Calm     97 % 0.0 mm 0 W/m2
05:20 -2.8 °C -3.2 °C 1025.6 hPa Calm     97 % 0.0 mm 0 W/m2
05:25 -2.8 °C -3.2 °C 1025.6 hPa Calm     97 % 0.0 mm 0 W/m2
05:30 -2.8 °C -3.2 °C 1025.3 hPa Calm     97 % 0.0 mm 0 W/m2
05:35 -2.8 °C -3.2 °C 1025.3 hPa Calm     97 % 0.0 mm 0 W/m2
05:40 -2.8 °C -3.2 °C 1025.3 hPa Calm     97 % 0.0 mm 0 W/m2
05:45 -2.8 °C -3.2 °C 1024.9 hPa Calm     97 % 0.0 mm 0 W/m2
05:50 -2.8 °C -3.0 °C 1024.9 hPa Calm     98 % 0.0 mm 0 W/m2
05:55 -2.7 °C -3.0 °C 1024.9 hPa Calm     98 % 0.0 mm 0 W/m2
06:00 -2.7 °C -3.0 °C 1024.6 hPa Calm     98 % 0.0 mm 0 W/m2
06:05 -2.7 °C -2.9 °C 1024.6 hPa Calm     98 % 0.0 mm 0 W/m2
06:10 -2.7 °C -2.9 °C 1024.6 hPa Calm     98 % 0.0 mm 0 W/m2
06:15 -2.7 °C -2.9 °C 1024.6 hPa Calm     98 % 0.0 mm 0 W/m2
06:20 -2.6 °C -2.9 °C 1024.3 hPa Calm     98 % 0.0 mm 0 W/m2
06:30 -2.6 °C -2.8 °C 1024.3 hPa Calm     98 % 0.0 mm 0 W/m2
06:35 -2.5 °C -2.8 °C 1024.3 hPa Calm     98 % 0.0 mm 0 W/m2
06:40 -2.5 °C -2.8 °C 1024.3 hPa Calm     98 % 0.0 mm 0 W/m2
06:45 -2.4 °C -2.7 °C 1024.3 hPa Calm     98 % 0.0 mm 0 W/m2
06:50 -2.4 °C -2.7 °C 1024.3 hPa Calm     98 % 0.0 mm 0 W/m2
06:55 -2.3 °C -2.6 °C 1023.9 hPa Calm     98 % 0.0 mm 0 W/m2
07:00 -2.3 °C -2.6 °C 1023.9 hPa Calm     98 % 0.0 mm 0 W/m2
07:05 -2.3 °C -2.6 °C 1023.9 hPa Calm     98 % 0.0 mm 0 W/m2
07:10 -2.3 °C -2.6 °C 1023.9 hPa Calm     98 % 0.0 mm 0 W/m2
07:15 -2.2 °C -2.5 °C 1023.9 hPa Calm     98 % 0.0 mm 0 W/m2
07:20 -2.2 °C -2.4 °C 1023.9 hPa Calm     98 % 0.0 mm 0 W/m2
07:25 -2.2 °C -2.4 °C 1023.9 hPa Calm     98 % 0.0 mm 0 W/m2
07:30 -2.1 °C -2.4 °C 1023.6 hPa Calm     98 % 0.0 mm 0 W/m2
07:35 -2.1 °C -2.3 °C 1023.6 hPa Calm     98 % 0.0 mm 0 W/m2
07:40 -1.9 °C -2.2 °C 1023.6 hPa Calm     98 % 0.0 mm 0 W/m2
07:50 -1.9 °C -2.2 °C 1023.6 hPa Calm     98 % 0.0 mm 0 W/m2
07:55 -1.8 °C -2.1 °C 1023.6 hPa Calm     98 % 0.0 mm 0 W/m2
08:00 -1.8 °C -2.1 °C 1023.6 hPa Calm     98 % 0.0 mm 0 W/m2
08:05 -1.7 °C -2.0 °C 1023.6 hPa Calm     98 % 0.0 mm 0 W/m2
08:10 -1.7 °C -1.9 °C 1023.6 hPa Calm     98 % 0.0 mm 0 W/m2
08:15 -1.6 °C -1.9 °C 1023.2 hPa Calm     98 % 0.0 mm 0 W/m2
08:20 -1.5 °C -1.8 °C 1023.2 hPa Calm     98 % 0.0 mm 0 W/m2
08:25 -1.4 °C -1.7 °C 1023.2 hPa Calm     98 % 0.0 mm 0 W/m2
08:30 -1.3 °C -1.6 °C 1023.2 hPa Calm     98 % 0.0 mm 0 W/m2
08:40 -1.2 °C -1.5 °C 1022.9 hPa Calm     98 % 0.0 mm 0 W/m2
08:45 -1.2 °C -1.4 °C 1023.2 hPa Calm     98 % 0.0 mm 0 W/m2
08:50 -1.1 °C -1.3 °C 1023.2 hPa Calm     98 % 0.0 mm 0 W/m2
08:55 -1.0 °C -1.3 °C 1023.2 hPa Calm     98 % 0.0 mm 0 W/m2
09:00 -1.0 °C -1.3 °C 1023.2 hPa Calm     98 % 0.0 mm 0 W/m2
09:05 -0.9 °C -1.2 °C 1023.2 hPa Calm     98 % 0.0 mm 0 W/m2
09:10 -0.9 °C -1.0 °C 1023.2 hPa Calm     99 % 0.0 mm 0 W/m2
09:15 -0.8 °C -1.0 °C 1022.9 hPa Calm     99 % 0.0 mm 0 W/m2
09:20 -0.8 °C -0.9 °C 1022.9 hPa Calm     99 % 0.0 mm 0 W/m2
09:25 -0.7 °C -0.9 °C 1022.9 hPa Calm     99 % 0.0 mm 0 W/m2
09:30 -0.7 °C -0.9 °C 1022.9 hPa Calm     98 % 0.0 mm 0 W/m2
09:35 -0.6 °C -0.9 °C 1022.9 hPa Calm     98 % 0.0 mm 0 W/m2
09:40 -0.6 °C -0.7 °C 1022.6 hPa Calm     99 % 0.0 mm 5 W/m2
09:45 -0.4 °C -0.6 °C 1022.6 hPa Calm     99 % 0.0 mm 5 W/m2
09:50 -0.3 °C -0.5 °C 1022.6 hPa Calm     99 % 0.0 mm 7 W/m2
09:55 -0.2 °C -0.4 °C 1022.6 hPa Calm     99 % 0.0 mm 7 W/m2
10:00 -0.2 °C -0.3 °C 1022.6 hPa Calm     99 % 0.0 mm 7 W/m2
10:05 -0.1 °C -0.2 °C 1022.6 hPa Calm     99 % 0.0 mm 9 W/m2
10:10 0.1 °C -0.1 °C 1022.6 hPa ESE 1.6 km/h 11.3 km/h 99 % 0.0 mm 11 W/m2
10:15 0.2 °C 0.0 °C 1022.6 hPa SE 4.8 km/h 11.3 km/h 99 % 0.0 mm 14 W/m2
10:20 0.3 °C 0.1 °C 1022.6 hPa SE 3.2 km/h 8.0 km/h 99 % 0.0 mm 12 W/m2
10:25 0.3 °C 0.2 °C 1022.6 hPa SE 3.2 km/h 8.0 km/h 99 % 0.0 mm 16 W/m2
10:30 0.4 °C 0.3 °C 1022.2 hPa SE 6.4 km/h 9.7 km/h 99 % 0.0 mm 19 W/m2
10:40 0.6 °C 0.5 °C 1022.2 hPa Calm   8.0 km/h 99 % 0.0 mm 18 W/m2
10:45 0.7 °C 0.5 °C 1022.2 hPa SE 6.4 km/h 11.3 km/h 99 % 0.0 mm 18 W/m2
10:50 0.8 °C 0.6 °C 1022.2 hPa East 4.8 km/h 11.3 km/h 99 % 0.0 mm 16 W/m2
10:55 0.8 °C 0.7 °C 1022.2 hPa SSE 4.8 km/h 9.7 km/h 99 % 0.0 mm 18 W/m2
11:00 0.9 °C 0.7 °C 1022.2 hPa SE 4.8 km/h 8.0 km/h 99 % 0.0 mm 30 W/m2
11:05 0.9 °C 0.8 °C 1022.2 hPa SSE 4.8 km/h 8.0 km/h 99 % 0.0 mm 25 W/m2
11:10 1.0 °C 0.9 °C 1022.2 hPa SE 3.2 km/h 8.0 km/h 99 % 0.0 mm 28 W/m2
11:20 1.2 °C 1.0 °C 1021.9 hPa Calm   11.3 km/h 99 % 0.0 mm 26 W/m2
11:25 1.3 °C 1.2 °C 1021.9 hPa South 6.4 km/h 12.9 km/h 99 % 0.0 mm 35 W/m2
11:30 1.4 °C 1.3 °C 1021.9 hPa SSE 8.0 km/h 12.9 km/h 99 % 0.0 mm 33 W/m2
11:35 1.6 °C 1.4 °C 1021.9 hPa SE 6.4 km/h 12.9 km/h 99 % 0.0 mm 35 W/m2
11:40 1.7 °C 1.5 °C 1021.9 hPa South 3.2 km/h 14.5 km/h 99 % 0.0 mm 35 W/m2
11:45 1.8 °C 1.6 °C 1021.6 hPa South 6.4 km/h 14.5 km/h 99 % 0.0 mm 39 W/m2
11:50 1.9 °C 1.7 °C 1021.6 hPa SSE 6.4 km/h 12.9 km/h 99 % 0.0 mm 42 W/m2
11:55 2.0 °C 1.9 °C 1021.6 hPa SE 11.3 km/h 12.9 km/h 99 % 0.0 mm 40 W/m2
12:00 2.1 °C 2.0 °C 1021.6 hPa SE 3.2 km/h 14.5 km/h 99 % 0.0 mm 46 W/m2
12:05 2.2 °C 2.1 °C 1021.2 hPa ESE 4.8 km/h 14.5 km/h 99 % 0.0 mm 46 W/m2
12:10 2.3 °C 2.1 °C 1021.2 hPa SE 4.8 km/h 14.5 km/h 99 % 0.0 mm 44 W/m2
12:15 2.4 °C 2.3 °C 1021.2 hPa SSE 11.3 km/h 14.5 km/h 99 % 0.0 mm 39 W/m2
12:20 2.5 °C 2.4 °C 1020.9 hPa South 6.4 km/h 14.5 km/h 99 % 0.0 mm 39 W/m2
12:30 2.7 °C 2.5 °C 1020.9 hPa SSE 4.8 km/h 12.9 km/h 99 % 0.0 mm 53 W/m2
12:35 2.8 °C 2.6 °C 1020.9 hPa SE 4.8 km/h 12.9 km/h 99 % 0.0 mm 67 W/m2
12:40 2.8 °C 2.7 °C 1020.9 hPa South 8.0 km/h 11.3 km/h 99 % 0.0 mm 69 W/m2
12:45 2.9 °C 2.8 °C 1020.5 hPa SSE 4.8 km/h 12.9 km/h 99 % 0.0 mm 77 W/m2
12:50 3.1 °C 2.9 °C 1020.5 hPa South 9.7 km/h 16.1 km/h 99 % 0.0 mm 63 W/m2
12:55 3.2 °C 3.0 °C 1020.2 hPa South 9.7 km/h 17.7 km/h 99 % 0.0 mm 69 W/m2
13:05 3.4 °C 3.2 °C 1020.2 hPa SSE 9.7 km/h 16.1 km/h 99 % 0.3 mm 74 W/m2
13:10 3.5 °C 3.4 °C 1019.9 hPa South 11.3 km/h 16.1 km/h 99 % 0.3 mm 69 W/m2
13:15 3.7 °C 3.5 °C 1019.9 hPa SSE 11.3 km/h 17.7 km/h 99 % 0.3 mm 84 W/m2
13:20 3.8 °C 3.6 °C 1019.9 hPa South 8.0 km/h 17.7 km/h 99 % 0.3 mm 67 W/m2
13:25 3.9 °C 3.7 °C 1019.9 hPa SSE 8.0 km/h 14.5 km/h 99 % 0.3 mm 81 W/m2
13:30 4.0 °C 3.9 °C 1019.5 hPa South 6.4 km/h 14.5 km/h 99 % 0.3 mm 74 W/m2
13:35 4.2 °C 4.0 °C 1019.5 hPa SSE 11.3 km/h 17.7 km/h 99 % 0.3 mm 76 W/m2
13:40 4.3 °C 4.1 °C 1019.5 hPa South 14.5 km/h 19.3 km/h 99 % 0.3 mm 58 W/m2
13:45 4.4 °C 4.2 °C 1019.5 hPa SSW 4.8 km/h 19.3 km/h 99 % 0.3 mm 53 W/m2
13:50 4.6 °C 4.4 °C 1019.2 hPa South 20.9 km/h 20.9 km/h 99 % 0.3 mm 51 W/m2
13:55 4.7 °C 4.5 °C 1019.2 hPa SE 9.7 km/h 20.9 km/h 99 % 0.3 mm 49 W/m2
14:00 4.8 °C 4.6 °C 1019.2 hPa SSE 16.1 km/h 20.9 km/h 99 % 0.3 mm 42 W/m2
14:05 4.8 °C 4.7 °C 1019.2 hPa SSE 16.1 km/h 20.9 km/h 99 % 0.3 mm 33 W/m2
14:10 4.8 °C 4.7 °C 1019.2 hPa South 8.0 km/h 20.9 km/h 99 % 0.3 mm 39 W/m2
14:15 4.9 °C 4.7 °C 1019.2 hPa South 11.3 km/h 16.1 km/h 99 % 0.5 mm 79 W/m2
14:20 5.1 °C 4.9 °C 1019.2 hPa SE 8.0 km/h 16.1 km/h 99 % 0.5 mm 60 W/m2
14:25 5.2 °C 5.0 °C 1019.2 hPa SSE 20.9 km/h 20.9 km/h 99 % 0.5 mm 72 W/m2
14:30 5.1 °C 5.0 °C 1019.2 hPa South 8.0 km/h 20.9 km/h 99 % 0.5 mm 62 W/m2
14:35 5.1 °C 5.0 °C 1019.2 hPa SSW 9.7 km/h 20.9 km/h 99 % 0.5 mm 74 W/m2
14:40 5.2 °C 5.0 °C 1018.8 hPa SSE 9.7 km/h 19.3 km/h 99 % 0.5 mm 67 W/m2
14:45 5.2 °C 5.0 °C 1018.8 hPa South 16.1 km/h 20.9 km/h 99 % 0.5 mm 62 W/m2
14:50 5.1 °C 5.0 °C 1018.8 hPa South 6.4 km/h 20.9 km/h 99 % 0.5 mm 53 W/m2
14:55 5.1 °C 5.0 °C 1018.8 hPa SSW 9.7 km/h 16.1 km/h 99 % 0.5 mm 47 W/m2
15:00 5.1 °C 5.0 °C 1018.8 hPa SSE 12.9 km/h 17.7 km/h 99 % 0.5 mm 44 W/m2
15:05 5.2 °C 5.0 °C 1018.8 hPa South 9.7 km/h 17.7 km/h 99 % 0.5 mm 84 W/m2
15:10 5.2 °C 5.0 °C 1018.8 hPa South 11.3 km/h 16.1 km/h 99 % 0.5 mm 79 W/m2
15:15 5.2 °C 5.1 °C 1018.5 hPa SSE 11.3 km/h 17.7 km/h 99 % 0.3 mm 65 W/m2
15:20 5.3 °C 5.1 °C 1018.5 hPa SSE 8.0 km/h 19.3 km/h 99 % 0.5 mm 54 W/m2
15:25 5.3 °C 5.1 °C 1018.5 hPa SSE 6.4 km/h 19.3 km/h 99 % 0.5 mm 53 W/m2
15:30 5.3 °C 5.1 °C 1018.5 hPa South 14.5 km/h 19.3 km/h 99 % 0.5 mm 65 W/m2
15:35 5.3 °C 5.1 °C 1018.2 hPa South 11.3 km/h 22.5 km/h 99 % 0.5 mm 81 W/m2
15:40 5.3 °C 5.2 °C 1018.2 hPa SSW 8.0 km/h 22.5 km/h 99 % 0.5 mm 65 W/m2
15:45 5.4 °C 5.2 °C 1018.2 hPa South 11.3 km/h 19.3 km/h 99 % 0.5 mm 54 W/m2
15:50 5.4 °C 5.3 °C 1018.2 hPa SSE 6.4 km/h 19.3 km/h 99 % 0.5 mm 51 W/m2
15:55 5.5 °C 5.4 °C 1018.2 hPa SSE 17.7 km/h 19.3 km/h 99 % 0.5 mm 51 W/m2
16:00 5.5 °C 5.4 °C 1018.2 hPa SE 12.9 km/h 20.9 km/h 99 % 0.3 mm 56 W/m2
16:05 5.6 °C 5.4 °C 1017.8 hPa SE 17.7 km/h 20.9 km/h 99 % 0.3 mm 62 W/m2
16:10 5.7 °C 5.6 °C 1017.8 hPa SSE 11.3 km/h 20.9 km/h 99 % 0.3 mm 111 W/m2
16:20 5.8 °C 5.6 °C 1018.2 hPa SSE 12.9 km/h 20.9 km/h 99 % 0.0 mm 97 W/m2
16:30 5.6 °C 5.5 °C 1018.2 hPa SSE 12.9 km/h 20.9 km/h 99 % 0.0 mm 44 W/m2
16:35 5.5 °C 5.4 °C 1018.2 hPa SSE 6.4 km/h 20.9 km/h 99 % 0.0 mm 39 W/m2
16:40 5.4 °C 5.3 °C 1018.2 hPa South 16.1 km/h 20.9 km/h 99 % 0.0 mm 28 W/m2
16:45 5.4 °C 5.2 °C 1018.2 hPa SSE 12.9 km/h 20.9 km/h 99 % 0.0 mm 26 W/m2
16:55 5.3 °C 5.2 °C 1018.2 hPa South 8.0 km/h 16.1 km/h 99 % 0.0 mm 21 W/m2
17:00 5.4 °C 5.2 °C 1018.2 hPa SSE 8.0 km/h 17.7 km/h 99 % 0.0 mm 19 W/m2
17:05 5.4 °C 5.2 °C 1017.8 hPa SSE 11.3 km/h 17.7 km/h 99 % 0.0 mm 14 W/m2
17:10 5.4 °C 5.3 °C 1018.2 hPa SSE 8.0 km/h 17.7 km/h 99 % 0.0 mm 11 W/m2
17:15 5.4 °C 5.3 °C 1018.2 hPa SE 6.4 km/h 16.1 km/h 99 % 0.0 mm 9 W/m2
17:20 5.4 °C 5.3 °C 1017.8 hPa South 6.4 km/h 14.5 km/h 99 % 0.0 mm 5 W/m2
17:25 5.5 °C 5.4 °C 1018.2 hPa SE 8.0 km/h 14.5 km/h 99 % 0.0 mm 0 W/m2
17:30 5.5 °C 5.4 °C 1017.8 hPa SSE 6.4 km/h 14.5 km/h 99 % 0.0 mm 0 W/m2
17:35 5.4 °C 5.3 °C 1018.2 hPa SE 9.7 km/h 14.5 km/h 99 % 0.0 mm 0 W/m2
17:40 5.4 °C 5.3 °C 1018.2 hPa SSE 4.8 km/h 12.9 km/h 99 % 0.0 mm 0 W/m2
17:45 5.4 °C 5.3 °C 1018.2 hPa SE 6.4 km/h 14.5 km/h 99 % 0.0 mm 0 W/m2
17:50 5.4 °C 5.2 °C 1018.2 hPa SE 3.2 km/h 14.5 km/h 99 % 0.0 mm 0 W/m2
17:55 5.4 °C 5.2 °C 1018.2 hPa South 8.0 km/h 11.3 km/h 99 % 0.0 mm 0 W/m2
18:00 5.3 °C 5.2 °C 1018.2 hPa SSE 11.3 km/h 12.9 km/h 99 % 0.0 mm 0 W/m2
18:05 5.3 °C 5.2 °C 1018.2 hPa SSE 6.4 km/h 12.9 km/h 99 % 0.0 mm 0 W/m2
18:10 5.3 °C 5.1 °C 1018.2 hPa SSE 6.4 km/h 12.9 km/h 99 % 0.0 mm 0 W/m2
18:15 5.3 °C 5.1 °C 1018.2 hPa SSE 3.2 km/h 9.7 km/h 99 % 0.0 mm 0 W/m2
18:20 5.3 °C 5.1 °C 1018.2 hPa SE 9.7 km/h 11.3 km/h 99 % 0.0 mm 0 W/m2
18:25 5.3 °C 5.2 °C 1018.2 hPa SE 12.9 km/h 12.9 km/h 99 % 0.0 mm 0 W/m2
18:30 5.3 °C 5.2 °C 1018.2 hPa SE 4.8 km/h 12.9 km/h 99 % 0.0 mm 0 W/m2
18:40 5.4 °C 5.2 °C 1018.2 hPa South 8.0 km/h 12.9 km/h 99 % 0.0 mm 0 W/m2
18:50 5.4 °C 5.3 °C 1018.2 hPa SSE 11.3 km/h 14.5 km/h 99 % 0.0 mm 0 W/m2
18:55 5.5 °C 5.4 °C 1018.2 hPa SSE 3.2 km/h 12.9 km/h 99 % 0.0 mm 0 W/m2
19:00 5.6 °C 5.4 °C 1018.2 hPa SSE 4.8 km/h 12.9 km/h 99 % 0.0 mm 0 W/m2
19:05 5.6 °C 5.5 °C 1018.2 hPa SSE 11.3 km/h 14.5 km/h 99 % 0.0 mm 0 W/m2
19:10 5.7 °C 5.5 °C 1018.2 hPa SSE 3.2 km/h 14.5 km/h 99 % 0.0 mm 0 W/m2
19:15 5.7 °C 5.6 °C 1018.2 hPa South 9.7 km/h 14.5 km/h 99 % 0.0 mm 0 W/m2
19:20 5.8 °C 5.6 °C 1018.2 hPa SSE 11.3 km/h 16.1 km/h 99 % 0.0 mm 0 W/m2
19:25 5.8 °C 5.6 °C 1018.2 hPa SSE 8.0 km/h 17.7 km/h 99 % 0.0 mm 0 W/m2
19:30 5.8 °C 5.6 °C 1017.8 hPa SSE 11.3 km/h 17.7 km/h 99 % 0.0 mm 0 W/m2
19:35 5.8 °C 5.6 °C 1018.2 hPa SSE 6.4 km/h 17.7 km/h 99 % 0.0 mm 0 W/m2
19:40 5.8 °C 5.6 °C 1018.2 hPa SSE 9.7 km/h 16.1 km/h 99 % 0.0 mm 0 W/m2
19:45 5.8 °C 5.6 °C 1018.2 hPa SE 11.3 km/h 16.1 km/h 99 % 0.0 mm 0 W/m2
19:50 5.8 °C 5.6 °C 1018.2 hPa SSE 11.3 km/h 14.5 km/h 99 % 0.0 mm 0 W/m2
19:55 5.8 °C 5.6 °C 1018.2 hPa SE 9.7 km/h 14.5 km/h 99 % 0.0 mm 0 W/m2
20:00 5.8 °C 5.6 °C 1018.2 hPa SSE 6.4 km/h 14.5 km/h 99 % 0.0 mm 0 W/m2
20:05 5.8 °C 5.6 °C 1018.2 hPa SSE 6.4 km/h 14.5 km/h 99 % 0.0 mm 0 W/m2
20:10 5.7 °C 5.6 °C 1018.2 hPa SSE 6.4 km/h 14.5 km/h 99 % 0.0 mm 0 W/m2
20:15 5.7 °C 5.6 °C 1018.2 hPa SSE 4.8 km/h 16.1 km/h 99 % 0.0 mm 0 W/m2
20:20 5.7 °C 5.6 °C 1018.2 hPa SSE 4.8 km/h 16.1 km/h 99 % 0.0 mm 0 W/m2
20:25 5.7 °C 5.5 °C 1018.2 hPa SE 11.3 km/h 14.5 km/h 99 % 0.0 mm 0 W/m2
20:30 5.7 °C 5.5 °C 1018.2 hPa SE 6.4 km/h 14.5 km/h 99 % 0.0 mm 0 W/m2
20:35 5.6 °C 5.5 °C 1018.2 hPa SSE 9.7 km/h 12.9 km/h 99 % 0.0 mm 0 W/m2
20:40 5.6 °C 5.4 °C 1018.5 hPa SSE 8.0 km/h 12.9 km/h 99 % 0.0 mm 0 W/m2
20:45 5.6 °C 5.4 °C 1018.2 hPa SE 6.4 km/h 14.5 km/h 99 % 0.0 mm 0 W/m2
20:50 5.6 °C 5.4 °C 1018.2 hPa SSE 4.8 km/h 14.5 km/h 99 % 0.0 mm 0 W/m2
20:55 5.6 °C 5.4 °C 1018.5 hPa SSE 3.2 km/h 17.7 km/h 99 % 0.0 mm 0 W/m2
21:00 5.6 °C 5.4 °C 1018.2 hPa SE 9.7 km/h 17.7 km/h 99 % 0.0 mm 0 W/m2
21:05 5.5 °C 5.4 °C 1018.2 hPa SE 9.7 km/h 16.1 km/h 99 % 0.0 mm 0 W/m2
21:10 5.5 °C 5.4 °C 1018.5 hPa South 11.3 km/h 16.1 km/h 99 % 0.0 mm 0 W/m2
21:15 5.5 °C 5.4 °C 1018.2 hPa South 8.0 km/h 16.1 km/h 99 % 0.0 mm 0 W/m2
21:20 5.5 °C 5.4 °C 1018.5 hPa SSE 11.3 km/h 17.7 km/h 99 % 0.0 mm 0 W/m2
21:25 5.5 °C 5.4 °C 1018.5 hPa SSE 6.4 km/h 17.7 km/h 99 % 0.0 mm 0 W/m2
21:30 5.4 °C 5.3 °C 1018.5 hPa SSE 9.7 km/h 17.7 km/h 99 % 0.0 mm 0 W/m2
21:40 5.5 °C 5.4 °C 1018.2 hPa SE 14.5 km/h 19.3 km/h 99 % 0.0 mm 0 W/m2
21:45 5.5 °C 5.4 °C 1018.2 hPa SE 8.0 km/h 22.5 km/h 99 % 0.0 mm 0 W/m2
21:50 5.6 °C 5.4 °C 1018.2 hPa SSE 4.8 km/h 22.5 km/h 99 % 0.0 mm 0 W/m2
21:55 5.6 °C 5.5 °C 1018.2 hPa South 9.7 km/h 17.7 km/h 99 % 0.0 mm 0 W/m2
22:00 5.7 °C 5.5 °C 1018.2 hPa South 8.0 km/h 20.9 km/h 99 % 0.0 mm 0 W/m2
22:05 5.7 °C 5.6 °C 1018.2 hPa SSE 11.3 km/h 20.9 km/h 99 % 0.0 mm 0 W/m2
22:10 5.7 °C 5.6 °C 1018.2 hPa SE 14.5 km/h 19.3 km/h 99 % 0.0 mm 0 W/m2
22:15 5.8 °C 5.6 °C 1018.2 hPa SSE 8.0 km/h 19.3 km/h 99 % 0.0 mm 0 W/m2
22:20 5.8 °C 5.7 °C 1018.5 hPa South 11.3 km/h 14.5 km/h 99 % 0.0 mm 0 W/m2
22:25 5.9 °C 5.7 °C 1018.5 hPa South 14.5 km/h 17.7 km/h 99 % 0.0 mm 0 W/m2
22:30 5.9 °C 5.8 °C 1018.5 hPa South 8.0 km/h 19.3 km/h 99 % 0.0 mm 0 W/m2
22:35 6.0 °C 5.9 °C 1018.5 hPa SSE 6.4 km/h 19.3 km/h 99 % 0.0 mm 0 W/m2
22:45 5.9 °C 5.8 °C 1018.5 hPa SSE 11.3 km/h 17.7 km/h 99 % 0.0 mm 0 W/m2
22:50 5.9 °C 5.8 °C 1018.5 hPa SSE 11.3 km/h 17.7 km/h 99 % 0.0 mm 0 W/m2
22:55 5.9 °C 5.8 °C 1018.5 hPa SSE 4.8 km/h 12.9 km/h 99 % 0.0 mm 0 W/m2
23:00 5.9 °C 5.7 °C 1018.5 hPa SSE 3.2 km/h 12.9 km/h 99 % 0.0 mm 0 W/m2
23:05 5.9 °C 5.7 °C 1018.5 hPa SE 9.7 km/h 12.9 km/h 99 % 0.0 mm 0 W/m2
23:10 5.8 °C 5.7 °C 1018.5 hPa SE 4.8 km/h 12.9 km/h 99 % 0.0 mm 0 W/m2
23:15 5.8 °C 5.7 °C 1018.5 hPa SSE 8.0 km/h 12.9 km/h 99 % 0.0 mm 0 W/m2
23:20 5.8 °C 5.7 °C 1018.5 hPa SE 8.0 km/h 12.9 km/h 99 % 0.0 mm 0 W/m2
23:25 5.8 °C 5.7 °C 1018.8 hPa SSE 6.4 km/h 11.3 km/h 99 % 0.0 mm 0 W/m2
23:30 5.8 °C 5.7 °C 1018.8 hPa SE 8.0 km/h 12.9 km/h 99 % 0.0 mm 0 W/m2
23:35 5.8 °C 5.7 °C 1018.8 hPa SSE 4.8 km/h 12.9 km/h 99 % 0.0 mm 0 W/m2
23:40 5.9 °C 5.7 °C 1018.8 hPa SE 9.7 km/h 12.9 km/h 99 % 0.0 mm 0 W/m2
23:45 5.9 °C 5.7 °C 1018.8 hPa SSE 6.4 km/h 12.9 km/h 99 % 0.0 mm 0 W/m2
23:50 5.9 °C 5.8 °C 1018.8 hPa SSE 8.0 km/h 14.5 km/h 99 % 0.0 mm 0 W/m2
23:55 6.0 °C 5.9 °C 1018.8 hPa South 8.0 km/h 14.5 km/h 99 % 0.0 mm 0 W/m2
Avec l'autorisation de Weather Underground - 1.75 mb